Showing default

NUSAT-45 (UZMASAT-1), 62640

Orbit data source: Space-Track

NUSAT-45 (UZMASAT-1), 62640 is an Argentinean payload satellite in SSO that was launched on Tue, 14 Jan 2025 UTC via an FALCON 9 launch vehicle from the Air Force Western Test Range (AFWTR). Payload-class satellites include a variety of spacecraft equipped with specific instruments for various scientific and technological missions. These include communications satellites like Starlink; space stations such as the ISS; scientific satellites like the Hubble; Earth observation satellites from companies like Planet Labs, Umbra, and HawkEye 360; GPS; miniature CubeSats for education and research; and military/defense satellites.

Loading next visibility...
Identifier
62640, 2025-009AH
Orbit
SSO
Country
Flag of UnknownUnknown / ARGN
Related business
None
Manufacturer
Unknown
Mission
Operational Commercial Imaging
Bus & Motor
Unknown
Mass
Unknown
Launch date (UTC)
2025-01-14 (9 months ago)
Launch vehicle
FALCON 9
Launch site
Air Force Western Test Range (AFWTR)
Object type
Payload
Rocket body
Debris
Shape & HBR
Box, 1.0 m
Radar Cross Section
0.542 m², Medium (>0.1 m² and < 1m²)

Expand to show TLE details & history
Last TLE update: 16 hours ago

TLE from 16 hours ago
0 NUSAT-45 (UZMASAT-1)
1 62640U 25009AH  25294.18449066  .00013593  00000-0  57464-3 0  9994
2 62640  97.4174  12.7985 0003551  91.3848 268.7796 15.23338495 42454
Epoch: 2025-10-21T04:25Z
TLE epoch observation values (Epoch: 2025-10-21T04:25:39.993Z)
Latitude
0.00003°
Longitude
-83.49423°
Altitude
498.927 km
Speed
7.615 km/s
True Right ascension
00h 51m 11s
True Declination
0° 00' 00"
Sunlit
Object was in full shadow at epoch
Visualization orbit readout
Latitude
Unknown
Longitude
Unknown
Altitude
Unknown
Speed
Unknown
Apparent Right ascension
Unknown
Apparent Declination
Unknown
Sunlit
N/A
Visualization observer readout
Local Sidereal Time
15:16:03
Azimuth
Unknown
Elevation
Unknown
Doppler factor
Unknown
Orbital elements
Apogee altitude
495.181 km
Perigee altitude
490.301 km
Semi-major axis
6,870.878 km
Eccentricity
0.00036
Inclination
97.4174°
RAAN
12.7985°
Arg. of periapsis
91.3848°
True anomaly
268.73892°
Mean anomaly
268.7796°
Eccentric anomaly
268.75926°
Mean motion
3.81088 °/min
Orbital period
94.47 mins
BSTAR
0.00057464
Loading maneuver chart data...
Computing Atmospheric mass density...
Loading historical data...
Loading historical data...
Loading historical data...
Loading historical data...
Loading historical data...
Loading historical data...
Loading historical data...

Documentation

Showing up to 5 results
|